www.pogodaiklimat.ru

Погода и климат >> Архив погоды >> Россия >> Якутия >> Крест-Хальджай


ПОГОДА в Крест-Хальджае

  • Прогноз погоды в Крест-Хальджае
  • Монитор погоды в Крест-Хальджае

АРХИВ ПОГОДЫ в Крест-Хальджае

Время (UTC), дата Ветер
(напр.,м/с)
 
Видим.   Явления Облачность Т
(С)
Тd
(С)
f
(%)
Тe
(С)
Тes
(С)
Комфортность P
(гПа)
Po
(гПа)
Тmin
(С)
Tmax
(С)
R
(мм)
R24
(мм)
S
(см)
09 18.06 З 1 50 км 6/4 600 м
[Sc Ci fib]
+24.5 +10.5 41 +26 +27 жарко 1004.7 991.7 +26.4
12 18.06 С 2 50 км 8/4 600 м
[Sc Ac trans Ci fib]
+21.0 +8.0 43 +23 +23 комфорт 1005.4 992.2
15 18.06 З 1 50 км 4/0
[Ac trans Ci fib]
+16.3 +7.5 56 +17 +17 1006.8 992.8
18 18.06 СЗ 1 50 км 3/0
[Ac trans Ci fib]
+13.2 +7.5 68 +13 +14 1007.4 993.7
21 18.06 С 1 50 км 3/0
[Ci fib]
+16.0 +10.1 68 +17 +20 1007.5 994.0 +12.0
00 19.06 В 3 50 км ясно +23.2 +9.4 41 +25 +33 комфорт 1007.2 994.1
03 19.06 В 1 50 км 3/3 1000 м
[Cu hum]
+26.2 +10.1 36 +27 +38 жарко 1007.0 993.9
06 19.06 В 2 50 км 6/6 1000 м
[Cu hum]
+27.4 +9.9 33 +28 +32 жарко 1006.5 993.4
09 19.06 Ю 1 50 км 6/4 600 м
[Sc]
+26.4 +9.9 35 +27 +29 жарко 1006.4 993.3 +27.4
12 19.06 штиль 0 50 км 6/0
[Ci fib]
+21.5 +10.6 50 +23 +23 комфорт 1007.4 994.1
15 19.06 ЮВ 1 50 км 6/0
[Ci fib]
+16.6 +13.4 81 +17 +17 1007.9 994.4
18 19.06 ЮЗ 1 50 км 8/0
[Ci fib]
+15.3 +13.7 90 +16 +16 1008.1 994.5
21 19.06 СЗ 1 50 км 10/0
[As op]
+13.8 +12.1 89 +14 +15 1008.2 994.5 +13.8
00 20.06 СЗ 2 50 км 8/0
[Ci fib]
+21.5 +13.2 59 +24 +32 комфорт 1007.5 994.3
03 20.06 З 2 50 км 8/0
[Ci fib]
+27.7 +9.5 32 +28 +39 жарко 1007.0 994.0
06 20.06 З 2 50 км 8/0
[Ci fib]
+27.0 +9.0 32 +27 +35 жарко 1006.0 993.0
09 20.06 В 3 50 км 10/0
[Ci fib]
+25.4 +9.4 36 +26 +28 жарко 1006.3 993.2 +27.8
12 20.06 В 2 50 км 10/0
[As op]
+20.2 +10.7 54 +22 +22 комфорт 1006.5 993.2
15 20.06 В 2 50 км 10/0
[As op]
+14.4 +12.6 89 +14 +14 1006.9 993.4
18 20.06 штиль 0 50 км 10/0
[As op]
+13.0 +11.0 88 +12 +12 1006.7 993.4
21 20.06 В 1 50 км 8/0
[Ac trans Ci fib]
+12.5 +11.2 92 +12 +14 1007.5 993.8 +11.7
00 21.06 штиль 0 50 км 10/0 1000 м
[Ac As Ci fib]
+14.6 +12.2 86 +14 +21 1008.8 995.2
03 21.06 ЮЗ 2 50 км 10/0
[Ac trans Ci fib]
+16.8 +14.2 85 +17 +24 1008.2 994.8
06 21.06 ЮЗ 2 50 км 10/4 1000 м
[Cu med, cong Ac trans Ci fib]
+24.2 +11.7 46 +26 +29 жарко 1006.6 993.5
09 21.06 З 1 50 км {гроза, ливн. осадки} 10/4 1000 м
[Cb cap Ac trans Ci fib]
+15.8 +15.1 96 +16 +17 1008.4 994.9 +24.3 9
12 21.06 штиль 0 50 км 4/0
[Ci fib]
+18.0 +14.7 81 +18 +18 1009.0 995.6
15 21.06 штиль 0 50 км ясно +14.4 +14.0 97 +14 +14 1009.9 996.3
18 21.06 штиль 0 50 км ясно +12.6 +11.9 95 +12 +12 1010.4 996.8
21 21.06 штиль 0 50 км 6/0
[Ac trans Ci fib]
+13.0 +12.3 96 +12 +15 1011.5 997.8 +12.6
00 22.06 штиль 0 50 км 3/0
[Ci fib]
+20.0 +14.5 71 +22 +34 комфорт 1011.1 997.7
03 22.06 Ю 2 50 км 4/3 1000 м
[Cu med, cong Ci fib]
+24.2 +10.1 41 +25 +34 комфорт 1009.6 996.5
06 22.06 С 1 50 км 8/4 600 м
[Cu med, cong Ci fib]
+25.4 +9.1 36 +26 +32 жарко 1008.5 995.4
09 22.06 Ю 2 50 км 8/5 600 м
[St Ac cuf Ci fib]
+24.3 +8.7 37 +25 +26 комфорт 1008.0 994.9 +25.8
12 22.06 ЮВ 3 50 км 8/8 600 м
[St Ac cast]
+18.2 +13.3 73 +19 +19 1009.9 996.6
15 22.06 В 2 50 км {дождь} 10/10 600 м
[Sc]
+15.8 +14.4 91 +16 +16 1010.3 996.8
18 22.06 ЮВ 2 50 км {дождь} 8/4 600 м
[St Ac trans Ci fib]
+13.8 +12.9 94 +13 +13 1010.9 997.3 200
21 22.06 Ю 3 50 км 9/5 600 м
[St Ac cuf Ci fib]
+15.0 +11.7 81 +14 +15 1011.2 997.6 +13.6 3
00 23.06 Ю 2 50 км 8/0
[Ci fib]
+17.5 +9.5 59 +18 +26 1011.5 998.0
03 23.06 Ю 2 50 км 8/0
[Ci fib]
+20.5 +10.2 52 +23 +34 комфорт 1010.3 997.0
06 23.06 Ю 2 50 км 8/0
[Ci fib]
+22.8 +9.5 43 +24 +32 комфорт 1009.6 996.5
09 23.06 штиль 0 50 км 4/0
[Ci fib]
+23.7 +7.8 36 +24 +28 комфорт 1008.6 995.5 +23.8
12 23.06 штиль 0 50 км ясно +22.0 +9.4 45 +24 +24 комфорт 1008.2 995.0
15 23.06 штиль 0 50 км ясно +14.5 +11.5 82 +14 +14 1008.5 995.0
18 23.06 штиль 0 50 км ясно +13.0 +11.0 88 +12 +13 1008.0 994.5
21 23.06 штиль 0 50 км ясно +15.0 +12.6 86 +15 +18 1007.5 994.0 +12.7
00 24.06 В 1 50 км 10/0
[Ac As]
+19.2 +8.7 51 +21 +24 комфорт 1008.3 994.9 300
03 24.06 В 1 50 км 3/3 1000 м
[Cu hum]
+23.5 +7.5 36 +24 +35 комфорт 1007.5 994.3
06 24.06 Ю 1 50 км 6/6 1000 м
[Cu hum]
+25.0 +7.7 33 +25 +28 комфорт 1006.6 993.5 700
09 24.06 штиль 0 50 км 9/8 1000 м
[Cu hum]
+23.8 +7.2 34 +24 +25 комфорт 1006.6 993.4 +25.0
12 24.06 штиль 0 50 км ясно +22.3 +7.6 39 +23 +23 комфорт 1007.6 994.4
15 24.06 штиль 0 50 км 10/0
[Ac As]
+18.4 +8.8 54 +19 +19 1008.9 995.5
18 24.06 штиль 0 50 км ясно +15.5 +8.3 62 +15 +15 1010.8 997.3
21 24.06 В 1 50 км ясно +14.6 +9.4 71 +15 +18 1012.3 998.6 +14.6
00 25.06 В 1 50 км ясно +18.2 +9.7 58 +20 +30 1012.6 999.1
03 25.06 В 2 50 км 4/4 1000 м
[Cu hum]
+21.5 +9.2 45 +23 +31 комфорт 1011.8 998.5
06 25.06 В 2 50 км 10/6 1000 м
[Cu hum Ac trans Ci fib]
+21.6 +9.3 45 +23 +25 комфорт 1011.1 997.9

 

Местоположение метеостанции Крест-Хальджай (Якутия, Россия): широта 62.82 долгота 134.40 высота над уровнем моря 115 м.

В архиве по умолчанию представлена погода в Крест-Хальджае за последнюю неделю. Архивные данные за месяц целиком и за предыдущие месяцы, начиная с января 2011 года, Вы можете получить, выбрав интересующий диапазон дат из раскрывающегося списка и нажав кнопку "Ввод!".


*Определитесь, кто Вы:
робот инопланетянин человек

Внимание! Время в таблицах - всемирное. Для получения местного времени необходимо прибавить поправку, которая равна 9 ч.

Смотрите также архив погоды в соседних городах и на ближайших метеорологических станциях:

Погода в Ытык-Кюёле (Якутия, Россия) (68 км)
Погода в Охотском Перевозе (Якутия, Россия) (120 км)
Погода в Теплом Ключе (Якутия, Россия) (122 км)
Погода в Чурапче (Якутия, Россия) (128 км)
Погода в Верхоянском Перевозе (Якутия, Россия) (133 км)
Погода в Томпо (Якутия, Россия) (144 км)
Погода в Сеген-Кюеле (Якутия, Россия) (243 км)
Погода в Намцах (Якутия, Россия) (244 км)
Погода в Амге (Якутия, Россия) (251 км)
Погода в Батамае (Якутия, Россия) (263 км)

Пояснения к столбцам:

Ветер - указаны скорость ветра в м/с - средняя за 10 мин, порывы в срок и между сроками (в фигурных скобках) и направление, откуда дует ветер: С - северный, СВ - северо-восточный, В - восточный, ЮВ - юго-восточный, Ю - южный, ЮЗ - юго-западный, З - западный, СЗ - северо-западный.
Видимость - горизонтальная дальность видимости в метрах или километрах. При видимости от 1 до 10 км при отсутствии осадков обычно наблюдается дымка, при ухудшении видимости до 1 км и менее - туман. В сухую погоду видимость может ухудшаться дымом, пылью или мглою.
Явления - указаны атмосферные явления, наблюдавшиеся в срок или в последний час перед сроком; фигурными скобками обозначены явления, наблюдавшиеся между сроками (за 1-3 часа до срока); квадратными скобками обозначены град или гололедные отложения с указанием их диаметра в мм.
Облачность - указаны через наклонную черту общая и нижняя облачность в баллах и высота нижней границы облаков в метрах; квадратными скобками обозначены формы облаков: Ci - перистые, Cs - перисто-слоистые, Cc - перисто-кучевые, Ac - высококучевые, As - высокослоистые, Sc - слоисто-кучевые, Ns - слоисто-дождевые, Cu - кучевые, Cb - кучево-дождевые. Подробнее классификацию облаков см. в Атласе облаков (PDF).
T - Температура воздуха - температура, измеренная на высоте 2 м над землей.
Td - Температура точки росы - температура, при понижении до которой содержащийся в воздухе водяной пар достигнет насыщения.
f - Относительная влажность воздуха - влажноcть воздуха, измеренная на высоте 2 м над землей.
Te - Эффективная температура - температура, которую ощущает одетый по сезону человек в тени. Характеристика душности погоды. При расчете учитывается влияние влажности воздуха и скорости ветра на теплоощущения человека.
Tes - Эффективная температура на солнце - температура, которую ощущает человек, с поправкой на солнечный нагрев. Характеристика знойности погоды. Зависит от высоты солнца над горизонтом, облачности и скорости ветра. Ночью, в пасмурную погоду, а также при ветре 12 м/с и более поправка равна нулю.
P - Атмосферное давление - приведенное к уровню моря атмосферное давление.
Po - Атмосферное давление - измеренное на уровне метеостанции атмосферное давление.
Tmin - Минимальная температура - минимум температуры воздуха на высоте 2 м над землей.
Tmax - Максимальная температура - максимум температуры воздуха на высоте 2 м над землей.
R - Количество осадков - Количество выпавших осадков за период времени, мм. При наведении курсора мыши на число - период времени, за который выпало указанное количество осадков.
R24 - Количество осадков - Количество выпавших осадков за 24 часа, мм.
S - Снежный покров - Высота снежного покрова, см. При наведении курсора мыши на число - состояние снежного покрова и степень покрытия местности в баллах.